DateTimeUTC,F1_A11,F1_S11,BsB_S11,BsG_S11,BsR_S11,BbsB_S11,BbsG_S11,BbsR_S11,BaB_A11,BaG_A11,BaR_A11,Tu_S11,T_S11,Uu_S11,U_S11,P_S11,T1_A11
2021-06-10T09:00:00Z,00000200,20000000,,,,,,,-000.05,-000.49,0000.17,17.5,24.2,05.3,03.5,0663.1,31.0
2021-06-10T09:01:00Z,00000200,20000000,,,,,,,0000.06,0000.02,0000.03,17.5,24.2,05.3,03.5,0663.1,31.0
2021-06-10T09:02:00Z,00000200,20000000,,,,,,,-000.24,-000.27,-000.17,17.5,24.2,05.3,03.5,0663.1,31.0
2021-06-10T09:03:00Z,00000200,60000000,,,,,,,-000.11,-000.26,-000.03,17.5,24.2,05.3,03.5,0663.1,31.0
2021-06-10T09:04:00Z,00000200,40000000,0000.77,0000.35,0000.13,0000.12,0000.38,-000.28,-000.00,0000.16,-000.06,17.6,24.1,05.0,03.4,0664.0,31.0
2021-06-10T09:05:00Z,00000200,00000000,0001.55,0000.47,0000.07,-000.01,0000.06,0000.14,0000.59,0000.37,0000.08,17.7,24.1,04.9,03.3,0664.1,31.0
2021-06-10T09:06:00Z,00000200,00000000,0001.70,0000.92,0000.38,-000.05,0000.39,0000.01,0000.31,0000.52,0000.48,17.7,24.0,05.0,03.3,0664.1,31.0
2021-06-10T09:07:00Z,00000200,00000000,0001.20,0000.65,0000.26,0000.09,0000.07,0000.27,0000.59,0000.45,0000.29,17.7,24.0,05.0,03.4,0664.1,31.0
2021-06-10T09:08:00Z,00000200,00000000,0000.86,0000.83,0000.35,0000.38,0000.30,0000.14,0000.40,0000.26,0000.19,17.7,24.0,05.0,03.4,0664.1,31.0
2021-06-10T09:09:00Z,00000200,00000000,0001.42,0000.76,0000.03,0000.26,0000.22,-000.11,0000.21,0000.45,0000.03,17.7,24.0,05.0,03.4,0664.1,31.0
2021-06-10T09:10:00Z,00000200,00000000,0001.90,0000.59,0000.47,-000.19,0000.17,0000.02,0000.42,0000.06,0000.35,17.7,24.0,05.0,03.4,0664.1,31.0
2021-06-10T09:11:00Z,00000200,00000000,0001.55,0001.16,0000.44,0000.39,0000.14,0000.11,0000.36,0000.49,0000.22,17.7,24.0,05.1,03.4,0664.1,31.0
2021-06-10T09:12:00Z,00000200,00000000,0001.76,0001.10,0000.16,0000.52,0000.27,0000.30,0000.31,0000.88,0000.49,17.7,24.0,05.1,03.5,0664.1,31.0
2021-06-10T09:13:00Z,00000200,00000000,0001.40,0000.92,0000.70,0000.14,0000.16,0000.33,0000.37,-000.17,0000.30,17.7,24.0,05.0,03.4,0664.1,31.0
2021-06-10T09:14:00Z,00000200,00000000,0001.53,0000.79,0000.34,-000.17,0000.14,0000.18,0000.49,0000.47,0000.38,17.7,24.0,05.1,03.5,0664.1,31.0
2021-06-10T09:15:00Z,00000200,00000000,0001.69,0000.91,0000.39,0000.13,0000.32,0000.02,0000.31,0000.26,0000.10,17.7,24.1,05.0,03.4,0664.1,31.0
2021-06-10T09:16:00Z,00000200,00000000,0001.02,0000.76,0000.71,0000.05,0000.01,0000.25,0000.14,0000.16,0000.02,17.7,24.1,05.0,03.4,0664.1,31.0
2021-06-10T09:17:00Z,00000200,00000000,0001.42,0000.80,0000.16,0000.19,0000.16,0000.27,0000.34,0000.06,0000.26,17.8,24.1,05.0,03.4,0664.1,31.0
2021-06-10T09:18:00Z,00000200,00000000,0001.74,0000.83,0000.44,0000.59,0000.19,0000.26,0000.26,0000.45,0000.31,17.8,24.1,04.9,03.3,0664.1,31.0
2021-06-10T09:19:00Z,00000200,00000000,0000.77,0000.75,0000.07,-000.20,0000.14,0000.02,0000.36,-000.08,0000.04,17.8,24.1,05.0,03.4,0664.1,31.0
2021-06-10T09:20:00Z,00000200,00000000,0001.42,0000.62,0000.44,0000.38,0000.19,0000.07,-000.10,0000.52,0000.39,17.8,24.1,04.9,03.3,0664.1,31.0
2021-06-10T09:21:00Z,00000200,00000000,0001.02,0000.90,0000.36,0000.52,0000.23,0000.22,0000.75,0000.59,0000.00,17.8,24.1,04.8,03.3,0664.1,31.0
2021-06-10T09:22:00Z,00000200,00000000,0000.92,0000.70,0000.31,-000.06,-000.06,0000.14,0000.13,-000.06,0000.21,17.8,24.1,04.8,03.3,0664.1,31.0
2021-06-10T09:23:00Z,00000200,00000000,0001.77,0000.90,0000.35,0000.10,-000.05,0000.10,0000.17,0000.36,0000.57,17.8,24.1,04.7,03.2,0664.0,31.0
2021-06-10T09:24:00Z,00000200,00000000,0001.77,0000.91,0000.37,0000.22,-000.05,0000.15,0000.32,0000.21,0000.03,17.8,24.1,04.7,03.2,0664.0,31.0
2021-06-10T09:25:00Z,00000200,00000000,0001.62,0000.46,0000.06,-000.11,0000.12,0000.13,0000.28,0000.42,-000.09,17.8,24.1,04.7,03.2,0664.0,31.0
2021-06-10T09:26:00Z,00000200,00000000,0001.56,0000.59,0000.44,-000.07,0000.16,0000.47,0000.41,-000.10,0000.38,17.8,24.1,04.8,03.2,0664.0,31.0
2021-06-10T09:27:00Z,00000200,00000000,0001.18,0000.84,0000.48,0000.10,0000.09,0000.14,0000.14,0000.36,0000.24,17.9,24.1,04.7,03.2,0664.1,31.0
2021-06-10T09:28:00Z,00000200,00000000,0001.14,0000.67,0000.31,0000.47,-000.14,0000.36,0000.40,0000.24,0000.39,17.8,24.1,04.8,03.3,0664.1,31.0
2021-06-10T09:29:00Z,00000200,00000000,0001.76,0001.25,0000.24,-000.15,0000.22,0000.22,0000.44,0000.69,0000.16,17.8,24.1,04.8,03.2,0664.1,31.0
2021-06-10T09:30:00Z,00000200,00000000,0000.72,0000.98,0000.47,-000.19,0000.11,0000.33,0000.19,0000.11,0000.63,17.9,24.1,04.7,03.2,0664.1,31.0
2021-06-10T09:31:00Z,00000200,00000000,0001.38,0000.99,0000.41,0000.48,0000.13,0000.13,0000.21,0000.05,-000.55,17.9,24.1,04.7,03.2,0664.1,31.0
2021-06-10T09:32:00Z,00000200,00000000,0001.59,0000.82,0000.29,0000.21,0000.31,0000.15,0000.12,0000.35,0000.60,17.9,24.1,04.5,03.1,0664.1,31.0
2021-06-10T09:33:00Z,00000200,00000000,0002.23,0000.82,0000.63,0000.15,-000.06,0000.11,0000.23,0000.03,-000.05,17.9,24.1,04.6,03.1,0664.1,31.0
2021-06-10T09:34:00Z,00000200,00000000,0002.02,0000.83,0000.62,0000.24,0000.05,0000.41,0000.42,0000.46,0000.54,17.9,24.1,04.6,03.1,0664.1,31.0
2021-06-10T09:35:00Z,00000200,00000000,0001.51,0000.84,0000.61,0000.15,0000.02,0000.12,0000.28,0000.20,0000.11,17.9,24.1,04.6,03.1,0664.1,31.0
2021-06-10T09:36:00Z,00000200,00000000,0001.70,0000.77,0000.69,0000.13,0000.20,0000.31,0000.06,0000.14,0000.06,17.9,24.1,04.5,03.1,0664.1,31.0
2021-06-10T09:37:00Z,00000200,00000000,0001.24,0000.83,0000.73,0000.09,0000.11,0000.11,0000.42,0000.33,-000.01,17.9,24.1,04.3,02.9,0664.1,31.0
2021-06-10T09:38:00Z,00000200,00000000,0001.45,0001.02,0000.56,0000.25,0000.19,0000.04,-000.34,-000.34,0000.03,17.9,24.1,04.2,02.9,0664.1,31.0
2021-06-10T09:39:00Z,00000200,00000000,0001.32,0000.92,0000.55,0000.38,0000.10,0000.28,0000.49,0000.33,-000.07,17.9,24.1,04.3,02.9,0664.1,31.0
2021-06-10T09:40:00Z,00000200,00000000,0001.90,0001.08,0000.41,0000.50,0000.05,0000.05,0000.43,0000.46,0000.77,17.9,24.1,04.3,02.9,0664.1,31.0
2021-06-10T09:41:00Z,00000200,00000000,0002.04,0000.49,0000.23,0000.05,0000.12,0000.08,0000.05,0000.10,-000.19,17.9,24.1,04.2,02.9,0664.1,31.0
2021-06-10T09:42:00Z,00000200,00000000,0001.40,0000.82,0000.28,-000.39,0000.15,0000.29,-000.08,0000.07,0000.32,17.9,24.1,04.0,02.7,0664.1,31.0
2021-06-10T09:43:00Z,00000200,00000000,0001.02,0000.67,0000.28,-000.10,0000.10,0000.33,0000.12,0000.03,-000.30,17.9,24.1,04.0,02.7,0664.1,31.0
2021-06-10T09:44:00Z,00000200,00000000,0002.09,0000.66,-000.05,-000.30,0000.04,0000.17,0000.40,0000.19,0000.28,17.9,24.1,04.0,02.7,0664.1,31.0
2021-06-10T09:45:00Z,00000200,00000000,0001.31,0000.46,0000.14,-000.33,0000.16,0000.45,0000.33,0000.17,0000.16,17.9,24.1,04.0,02.7,0664.1,31.0
2021-06-10T09:46:00Z,00000200,00000000,0001.48,0000.78,0000.30,0000.22,0000.40,0000.11,0000.12,0000.53,0000.35,17.9,24.1,04.0,02.7,0664.1,31.0
2021-06-10T09:47:00Z,00000200,00000000,0000.76,0000.74,0000.60,-000.18,0000.12,0000.18,0000.41,0000.02,0000.23,17.9,24.1,04.1,02.8,0664.1,31.0
2021-06-10T09:48:00Z,00000200,00000000,0001.68,0000.60,0000.52,0000.14,0000.00,-000.12,0000.45,0000.37,-000.19,17.9,24.1,04.0,02.7,0664.1,31.0
2021-06-10T09:49:00Z,00000200,00000000,0001.46,0001.07,0000.46,-000.07,0000.15,-000.02,0000.09,0000.26,0000.37,17.9,24.1,04.0,02.7,0664.1,31.0
2021-06-10T09:50:00Z,00000200,00000000,0001.64,0000.61,0000.35,0000.15,0000.20,-000.04,0000.53,0000.40,0000.50,17.9,24.1,04.1,02.8,0664.1,31.0
2021-06-10T09:51:00Z,00000200,00000000,0002.03,0000.66,0000.28,-000.00,0000.36,-000.02,0000.71,0000.52,0000.24,17.9,24.1,04.2,02.9,0664.2,31.0
2021-06-10T09:52:00Z,00000200,00000000,0001.73,0000.85,0000.41,0000.86,-000.07,0000.05,0000.56,0000.62,0000.58,17.9,24.1,04.3,02.9,0664.1,31.0
2021-06-10T09:53:00Z,00000200,00000000,0001.54,0000.70,0000.24,0000.43,0000.10,0000.18,0000.50,0000.23,0000.29,17.9,24.1,04.4,03.0,0664.2,31.0
2021-06-10T09:54:00Z,00000200,00000000,0002.13,0000.97,0000.24,0000.11,0000.25,0000.12,-000.04,0000.35,0000.11,17.9,24.1,04.4,03.0,0664.2,31.0
2021-06-10T09:55:00Z,00000200,00000000,0001.41,0000.83,0000.34,0000.23,0000.15,0000.39,0000.42,0000.68,0000.05,17.9,24.1,04.5,03.0,0664.2,31.0
2021-06-10T09:56:00Z,00000200,00000000,0001.54,0000.74,0000.38,0000.48,0000.02,0000.11,0000.47,0000.09,0000.54,17.8,24.1,04.5,03.1,0664.2,31.0
2021-06-10T09:57:00Z,00000200,40000000,,,,,,,0000.35,0000.47,0000.57,17.9,24.2,04.7,03.2,0664.3,31.0
2021-06-10T09:58:00Z,00000200,60000000,,,,,,,0000.03,-000.02,-000.45,17.6,24.3,04.6,03.0,0663.2,31.0
2021-06-10T09:59:00Z,00000200,20000000,,,,,,,-000.10,-000.21,-000.00,17.6,24.4,04.6,03.0,0663.2,31.0
